Year,Month,Day,Hour,Minute,Value (Times are PST for temperature in C)
2015,07,23,00,00,14.30
2015,07,23,00,01,14.30
2015,07,23,00,02,14.30
2015,07,23,00,03,14.20
2015,07,23,00,04,14.20
2015,07,23,00,05,14.20
2015,07,23,00,06,14.20
2015,07,23,00,07,14.20
2015,07,23,00,08,14.20
2015,07,23,00,09,14.20
2015,07,23,00,10,14.20
2015,07,23,00,11,14.20
2015,07,23,00,12,14.20
2015,07,23,00,13,14.10
2015,07,23,00,14,14.10
2015,07,23,00,15,14.10
2015,07,23,00,16,14.00
2015,07,23,00,17,14.00
2015,07,23,00,18,13.90
2015,07,23,00,19,13.90
2015,07,23,00,20,13.90
2015,07,23,00,21,13.80
2015,07,23,00,22,13.80
2015,07,23,00,23,13.80
2015,07,23,00,24,13.70
2015,07,23,00,25,13.70
2015,07,23,00,26,13.70
2015,07,23,00,27,13.70
2015,07,23,00,28,13.70
2015,07,23,00,29,13.60
2015,07,23,00,30,13.60
2015,07,23,00,31,13.60
2015,07,23,00,32,13.60
2015,07,23,00,33,13.50
2015,07,23,00,34,13.50
2015,07,23,00,35,13.50
2015,07,23,00,36,13.40
2015,07,23,00,37,13.40
2015,07,23,00,38,13.40
2015,07,23,00,39,13.30
2015,07,23,00,40,13.30
2015,07,23,00,41,13.30
2015,07,23,00,42,13.30
2015,07,23,00,43,13.20
2015,07,23,00,44,13.20
2015,07,23,00,45,13.20
2015,07,23,00,46,13.20
2015,07,23,00,47,13.10
2015,07,23,00,48,13.10
2015,07,23,00,49,13.10
2015,07,23,00,50,13.10
2015,07,23,00,51,13.00
2015,07,23,00,52,13.00
2015,07,23,00,53,13.00
2015,07,23,00,54,13.00
2015,07,23,00,55,13.00
2015,07,23,00,56,12.90
2015,07,23,00,57,12.90
2015,07,23,00,58,12.90
2015,07,23,00,59,12.90
2015,07,23,01,00,12.90
2015,07,23,01,01,12.90
2015,07,23,01,02,12.90
2015,07,23,01,03,12.80
2015,07,23,01,04,12.80
2015,07,23,01,05,12.80
2015,07,23,01,06,12.80
2015,07,23,01,07,12.80
2015,07,23,01,08,12.80
2015,07,23,01,09,12.70
2015,07,23,01,10,12.70
2015,07,23,01,11,12.70
2015,07,23,01,12,12.70
2015,07,23,01,13,12.60
2015,07,23,01,14,12.60
2015,07,23,01,15,12.60
2015,07,23,01,16,12.60
2015,07,23,01,17,12.50
2015,07,23,01,18,12.50
2015,07,23,01,19,12.50
2015,07,23,01,20,12.40
2015,07,23,01,21,12.40
2015,07,23,01,22,12.40
2015,07,23,01,23,12.40
2015,07,23,01,24,12.40
2015,07,23,01,25,12.40
2015,07,23,01,26,12.30
2015,07,23,01,27,12.30
2015,07,23,01,28,12.30
2015,07,23,01,29,12.30
2015,07,23,01,30,12.30
2015,07,23,01,31,12.20
2015,07,23,01,32,12.20
2015,07,23,01,33,12.20
2015,07,23,01,34,12.20
2015,07,23,01,35,12.20
2015,07,23,01,36,12.20
2015,07,23,01,37,12.10
2015,07,23,01,38,12.10
2015,07,23,01,39,12.10
2015,07,23,01,40,12.10
2015,07,23,01,41,12.10
2015,07,23,01,42,12.10
2015,07,23,01,43,12.00
2015,07,23,01,44,12.00
2015,07,23,01,45,12.00
2015,07,23,01,46,11.90
2015,07,23,01,47,11.90
2015,07,23,01,48,11.90
2015,07,23,01,49,11.90
2015,07,23,01,50,11.90
2015,07,23,01,51,11.80
2015,07,23,01,52,11.80
2015,07,23,01,53,11.80
2015,07,23,01,54,11.80
2015,07,23,01,55,11.80
2015,07,23,01,56,11.80
2015,07,23,01,57,11.80
2015,07,23,01,58,11.70
2015,07,23,01,59,11.70
2015,07,23,02,00,11.70
2015,07,23,02,01,11.70
2015,07,23,02,02,11.70
2015,07,23,02,03,11.70
2015,07,23,02,04,11.60
2015,07,23,02,05,11.60
2015,07,23,02,06,11.60
2015,07,23,02,07,11.60
2015,07,23,02,08,11.60
2015,07,23,02,09,11.60
2015,07,23,02,10,11.50
2015,07,23,02,11,11.50
2015,07,23,02,12,11.50
2015,07,23,02,13,11.50
2015,07,23,02,14,11.40
2015,07,23,02,15,11.40
2015,07,23,02,16,11.40
2015,07,23,02,17,11.40
2015,07,23,02,18,11.40
2015,07,23,02,19,11.40
2015,07,23,02,20,11.30
2015,07,23,02,21,11.30
2015,07,23,02,22,11.30
2015,07,23,02,23,11.30
2015,07,23,02,24,11.30
2015,07,23,02,25,11.30
2015,07,23,02,26,11.30
2015,07,23,02,27,11.20
2015,07,23,02,28,11.20
2015,07,23,02,29,11.20
2015,07,23,02,30,11.20
2015,07,23,02,31,11.20
2015,07,23,02,32,11.20
2015,07,23,02,33,11.20
2015,07,23,02,34,11.20
2015,07,23,02,35,11.10
2015,07,23,02,36,11.10
2015,07,23,02,37,11.10
2015,07,23,02,38,11.10
2015,07,23,02,39,11.10
2015,07,23,02,40,11.10
2015,07,23,02,41,11.10
2015,07,23,02,42,11.10
2015,07,23,02,43,11.10
2015,07,23,02,44,11.00
2015,07,23,02,45,11.00
2015,07,23,02,46,11.00
2015,07,23,02,47,11.00
2015,07,23,02,48,11.00
2015,07,23,02,49,10.90
2015,07,23,02,50,10.90
2015,07,23,02,51,10.90
2015,07,23,02,52,10.90
2015,07,23,02,53,10.90
2015,07,23,02,54,10.90
2015,07,23,02,55,10.90
2015,07,23,02,56,10.90
2015,07,23,02,57,10.80
2015,07,23,02,58,10.80
2015,07,23,02,59,10.80
2015,07,23,03,00,10.80
2015,07,23,03,01,10.80
2015,07,23,03,02,10.80
2015,07,23,03,03,10.80
2015,07,23,03,04,10.80
2015,07,23,03,05,10.80
2015,07,23,03,06,10.80
2015,07,23,03,07,10.80
2015,07,23,03,08,10.80
2015,07,23,03,09,10.80
2015,07,23,03,10,10.80
2015,07,23,03,11,10.80
2015,07,23,03,12,10.80
2015,07,23,03,13,10.80
2015,07,23,03,14,10.80
2015,07,23,03,15,10.80
2015,07,23,03,16,10.80
2015,07,23,03,17,10.70
2015,07,23,03,18,10.70
2015,07,23,03,19,10.70
2015,07,23,03,20,10.70
2015,07,23,03,21,10.70
2015,07,23,03,22,10.70
2015,07,23,03,23,10.70
2015,07,23,03,24,10.70
2015,07,23,03,25,10.70
2015,07,23,03,26,10.70
2015,07,23,03,27,10.70
2015,07,23,03,28,10.70
2015,07,23,03,29,10.70
2015,07,23,03,30,10.70
2015,07,23,03,31,10.70
2015,07,23,03,32,10.70
2015,07,23,03,33,10.70
2015,07,23,03,34,10.70
2015,07,23,03,35,10.70
2015,07,23,03,36,10.70
2015,07,23,03,37,10.70
2015,07,23,03,38,10.70
2015,07,23,03,39,10.60
2015,07,23,03,40,10.60
2015,07,23,03,41,10.60
2015,07,23,03,42,10.60
2015,07,23,03,43,10.60
2015,07,23,03,44,10.60
2015,07,23,03,45,10.60
2015,07,23,03,46,10.60
2015,07,23,03,47,10.60
2015,07,23,03,48,10.60
2015,07,23,03,49,10.60
2015,07,23,03,50,10.50
2015,07,23,03,51,10.50
2015,07,23,03,52,10.50
2015,07,23,03,53,10.50
2015,07,23,03,54,10.50
2015,07,23,03,55,10.40
2015,07,23,03,56,10.40
2015,07,23,03,57,10.40
2015,07,23,03,58,10.40
2015,07,23,03,59,10.40
2015,07,23,04,00,10.40
2015,07,23,04,01,10.40
2015,07,23,04,02,10.40
2015,07,23,04,03,10.30
2015,07,23,04,04,10.30
2015,07,23,04,05,10.30
2015,07,23,04,06,10.30
2015,07,23,04,07,10.30
2015,07,23,04,08,10.30
2015,07,23,04,09,10.20
2015,07,23,04,10,10.20
2015,07,23,04,11,10.20
2015,07,23,04,12,10.20
2015,07,23,04,13,10.20
2015,07,23,04,14,10.20
2015,07,23,04,15,10.20
2015,07,23,04,16,10.20
2015,07,23,04,17,10.20
2015,07,23,04,18,10.20
2015,07,23,04,19,10.20
2015,07,23,04,20,10.20
2015,07,23,04,21,10.20
2015,07,23,04,22,10.20
2015,07,23,04,23,10.20
2015,07,23,04,24,10.20
2015,07,23,04,25,10.20
2015,07,23,04,26,10.10
2015,07,23,04,27,10.10
2015,07,23,04,28,10.10
2015,07,23,04,29,10.10
2015,07,23,04,30,10.10
2015,07,23,04,31,10.10
2015,07,23,04,32,10.10
2015,07,23,04,33,10.10
2015,07,23,04,34,10.00
2015,07,23,04,35,10.00
2015,07,23,04,36,10.00
2015,07,23,04,37,10.00
2015,07,23,04,38,9.90
2015,07,23,04,39,9.90
2015,07,23,04,40,9.90
2015,07,23,04,41,9.90
2015,07,23,04,42,9.90
2015,07,23,04,43,9.90
2015,07,23,04,44,9.90
2015,07,23,04,45,9.80
2015,07,23,04,46,9.80
2015,07,23,04,47,9.80
2015,07,23,04,48,9.80
2015,07,23,04,49,9.80
2015,07,23,04,50,9.80
2015,07,23,04,51,9.80
2015,07,23,04,52,9.80
2015,07,23,04,53,9.80
2015,07,23,04,54,9.70
2015,07,23,04,55,9.70
2015,07,23,04,56,9.70
2015,07,23,04,57,9.70
2015,07,23,04,58,9.70
2015,07,23,04,59,9.70
2015,07,23,05,00,9.70
2015,07,23,05,01,9.70
2015,07,23,05,02,9.70
2015,07,23,05,03,9.70
2015,07,23,05,04,9.70
2015,07,23,05,05,9.70
2015,07,23,05,06,9.70
2015,07,23,05,07,9.70
2015,07,23,05,08,9.60
2015,07,23,05,09,9.60
2015,07,23,05,10,9.60
2015,07,23,05,11,9.60
2015,07,23,05,12,9.60
2015,07,23,05,13,9.60
2015,07,23,05,14,9.60
2015,07,23,05,15,9.60
2015,07,23,05,16,9.60
2015,07,23,05,17,9.50
2015,07,23,05,18,9.50
2015,07,23,05,19,9.50
2015,07,23,05,20,9.50
2015,07,23,05,21,9.50
2015,07,23,05,22,9.50
2015,07,23,05,23,9.50
2015,07,23,05,24,9.40
2015,07,23,05,25,9.40
2015,07,23,05,26,9.40
2015,07,23,05,27,9.40
2015,07,23,05,28,9.40
2015,07,23,05,29,9.40
2015,07,23,05,30,9.40
2015,07,23,05,31,9.40
2015,07,23,05,32,9.40
2015,07,23,05,33,9.40
2015,07,23,05,34,9.40
2015,07,23,05,35,9.40
2015,07,23,05,36,9.40
2015,07,23,05,37,9.40
2015,07,23,05,38,9.40
2015,07,23,05,39,9.30
2015,07,23,05,40,9.30
2015,07,23,05,41,9.30
2015,07,23,05,42,9.30
2015,07,23,05,43,9.30
2015,07,23,05,44,9.30
2015,07,23,05,45,9.30
2015,07,23,05,46,9.30
2015,07,23,05,47,9.30
2015,07,23,05,48,9.30
2015,07,23,05,49,9.30
2015,07,23,05,50,9.40
2015,07,23,05,51,9.40
2015,07,23,05,52,9.40
2015,07,23,05,53,9.40
2015,07,23,05,54,9.40
2015,07,23,05,55,9.40
2015,07,23,05,56,9.40
2015,07,23,05,57,9.40
2015,07,23,05,58,9.40
2015,07,23,05,59,9.40
2015,07,23,06,00,9.40
2015,07,23,06,01,9.40
2015,07,23,06,02,9.40
2015,07,23,06,03,9.40
2015,07,23,06,04,9.40
2015,07,23,06,05,9.40
2015,07,23,06,06,9.40
2015,07,23,06,07,9.40
2015,07,23,06,08,9.40
2015,07,23,06,09,9.40
2015,07,23,06,10,9.40
2015,07,23,06,11,9.50
2015,07,23,06,12,9.50
2015,07,23,06,13,9.50
2015,07,23,06,14,9.50
2015,07,23,06,15,9.50
2015,07,23,06,16,9.50
2015,07,23,06,17,9.50
2015,07,23,06,18,9.50
2015,07,23,06,19,9.50
2015,07,23,06,20,9.50
2015,07,23,06,21,9.50
2015,07,23,06,22,9.50
2015,07,23,06,23,9.50
2015,07,23,06,24,9.50
2015,07,23,06,25,9.50
2015,07,23,06,26,9.50
2015,07,23,06,27,9.50
2015,07,23,06,28,9.50
2015,07,23,06,29,9.50
2015,07,23,06,30,9.50
2015,07,23,06,31,9.50
2015,07,23,06,32,9.50
2015,07,23,06,33,9.50
2015,07,23,06,34,9.50
2015,07,23,06,35,9.50
2015,07,23,06,36,9.50
2015,07,23,06,37,9.50
2015,07,23,06,38,9.50
2015,07,23,06,39,9.50
2015,07,23,06,40,9.50
2015,07,23,06,41,9.60
2015,07,23,06,42,9.60
2015,07,23,06,43,9.60
2015,07,23,06,44,9.60
2015,07,23,06,45,9.60
2015,07,23,06,46,9.60
2015,07,23,06,47,9.60
2015,07,23,06,48,9.60
2015,07,23,06,49,9.60
2015,07,23,06,50,9.70
2015,07,23,06,51,9.70
2015,07,23,06,52,9.70
2015,07,23,06,53,9.70
2015,07,23,06,54,9.70
2015,07,23,06,55,9.70
2015,07,23,06,56,9.70
2015,07,23,06,57,9.70
2015,07,23,06,58,9.70
2015,07,23,06,59,9.70
2015,07,23,07,00,9.70
2015,07,23,07,01,9.70
2015,07,23,07,02,9.70
2015,07,23,07,03,9.70
2015,07,23,07,04,9.70
2015,07,23,07,05,9.70
2015,07,23,07,06,9.70
2015,07,23,07,07,9.70
2015,07,23,07,08,9.70
2015,07,23,07,09,9.70
2015,07,23,07,10,9.70
2015,07,23,07,11,9.70
2015,07,23,07,12,9.80
2015,07,23,07,13,9.80
2015,07,23,07,14,9.80
2015,07,23,07,15,9.80
2015,07,23,07,16,9.80
2015,07,23,07,17,9.90
2015,07,23,07,18,9.90
2015,07,23,07,19,9.90
2015,07,23,07,20,9.90
2015,07,23,07,21,9.90
2015,07,23,07,22,10.00
2015,07,23,07,23,10.00
2015,07,23,07,24,10.00
2015,07,23,07,25,10.10
2015,07,23,07,26,10.10
2015,07,23,07,27,10.20
2015,07,23,07,28,10.20
2015,07,23,07,29,10.30
2015,07,23,07,30,10.30
2015,07,23,07,31,10.30
2015,07,23,07,32,10.40
2015,07,23,07,33,10.40
2015,07,23,07,34,10.50
2015,07,23,07,35,10.50
2015,07,23,07,36,10.60
2015,07,23,07,37,10.70
2015,07,23,07,38,10.70
2015,07,23,07,39,10.80
2015,07,23,07,40,10.90
2015,07,23,07,41,11.00
2015,07,23,07,42,11.20
2015,07,23,07,43,11.30
2015,07,23,07,44,11.40
2015,07,23,07,45,11.50
2015,07,23,07,46,11.70
2015,07,23,07,47,11.80
2015,07,23,07,48,11.90
2015,07,23,07,49,12.00
2015,07,23,07,50,12.10
2015,07,23,07,51,12.20
2015,07,23,07,52,12.30
2015,07,23,07,53,12.40
2015,07,23,07,54,12.40
2015,07,23,07,55,12.50
2015,07,23,07,56,12.60
2015,07,23,07,57,12.60
2015,07,23,07,58,12.60
2015,07,23,07,59,12.60
2015,07,23,08,00,12.60
2015,07,23,08,01,12.50
2015,07,23,08,02,12.50
2015,07,23,08,03,12.50
2015,07,23,08,04,12.50
2015,07,23,08,05,12.40
2015,07,23,08,06,12.40
2015,07,23,08,07,12.40
2015,07,23,08,08,12.40
2015,07,23,08,09,12.40
2015,07,23,08,10,12.50
2015,07,23,08,11,12.50
2015,07,23,08,12,12.60
2015,07,23,08,13,12.60
2015,07,23,08,14,12.70
2015,07,23,08,15,12.70
2015,07,23,08,16,12.80
2015,07,23,08,17,12.90
2015,07,23,08,18,12.90
2015,07,23,08,19,13.00
2015,07,23,08,20,13.10
2015,07,23,08,21,13.20
2015,07,23,08,22,13.30
2015,07,23,08,23,13.40
2015,07,23,08,24,13.50
2015,07,23,08,25,13.60
2015,07,23,08,26,13.70
2015,07,23,08,27,13.80
2015,07,23,08,28,13.90
2015,07,23,08,29,14.00
2015,07,23,08,30,14.10
2015,07,23,08,31,14.20
2015,07,23,08,32,14.30
2015,07,23,08,33,14.30
2015,07,23,08,34,14.40
2015,07,23,08,35,14.60
2015,07,23,08,36,14.70
2015,07,23,08,37,14.70
2015,07,23,08,38,14.90
2015,07,23,08,39,15.00
2015,07,23,08,40,15.10
2015,07,23,08,41,15.20
2015,07,23,08,42,15.30
2015,07,23,08,43,15.40
2015,07,23,08,44,15.40
2015,07,23,08,45,15.50
2015,07,23,08,46,15.60
2015,07,23,08,47,15.60
2015,07,23,08,48,15.70
2015,07,23,08,49,15.70
2015,07,23,08,50,15.70
2015,07,23,08,51,15.70
2015,07,23,08,52,15.70
2015,07,23,08,53,15.80
2015,07,23,08,54,15.90
2015,07,23,08,55,16.00
2015,07,23,08,56,16.20
2015,07,23,08,57,16.30
2015,07,23,08,58,16.40
2015,07,23,08,59,16.50
2015,07,23,09,00,16.50
2015,07,23,09,01,16.60
2015,07,23,09,02,16.80
2015,07,23,09,03,16.90
2015,07,23,09,04,16.90
2015,07,23,09,05,17.00
2015,07,23,09,06,17.10
2015,07,23,09,07,17.10
2015,07,23,09,08,17.10
2015,07,23,09,09,17.10
2015,07,23,09,10,17.20
2015,07,23,09,11,17.20
2015,07,23,09,12,17.20
2015,07,23,09,13,17.20
2015,07,23,09,14,17.30
2015,07,23,09,15,17.30
2015,07,23,09,16,17.30
2015,07,23,09,17,17.20
2015,07,23,09,18,17.20
2015,07,23,09,19,17.20
2015,07,23,09,20,17.20
2015,07,23,09,21,17.20
2015,07,23,09,22,17.20
2015,07,23,09,23,17.20
2015,07,23,09,24,17.20
2015,07,23,09,25,17.30
2015,07,23,09,26,17.30
2015,07,23,09,27,17.30
2015,07,23,09,28,17.30
2015,07,23,09,29,17.40
2015,07,23,09,30,17.50
2015,07,23,09,31,17.60
2015,07,23,09,32,17.60
2015,07,23,09,33,17.60
2015,07,23,09,34,17.60
2015,07,23,09,35,17.70
2015,07,23,09,36,17.70
2015,07,23,09,37,17.70
2015,07,23,09,38,17.70
2015,07,23,09,39,17.80
2015,07,23,09,40,17.90
2015,07,23,09,41,18.00
2015,07,23,09,42,18.00
2015,07,23,09,43,18.10
2015,07,23,09,44,18.20
2015,07,23,09,45,18.20
2015,07,23,09,46,18.30
2015,07,23,09,47,18.30
2015,07,23,09,48,18.40
2015,07,23,09,49,18.50
2015,07,23,09,50,18.60
2015,07,23,09,51,18.60
2015,07,23,09,52,18.70
2015,07,23,09,53,18.80
2015,07,23,09,54,18.80
2015,07,23,09,55,18.90
2015,07,23,09,56,19.00
2015,07,23,09,57,19.00
2015,07,23,09,58,19.00
2015,07,23,09,59,19.00
2015,07,23,10,00,19.00
2015,07,23,10,01,19.00
2015,07,23,10,02,19.10
2015,07,23,10,03,19.10
2015,07,23,10,04,19.10
2015,07,23,10,05,19.20
2015,07,23,10,06,19.20
2015,07,23,10,07,19.20
2015,07,23,10,08,19.20
2015,07,23,10,09,19.20
2015,07,23,10,10,19.10
2015,07,23,10,11,19.10
2015,07,23,10,12,19.10
2015,07,23,10,13,19.00
2015,07,23,10,14,19.00
2015,07,23,10,15,18.90
2015,07,23,10,16,18.90
2015,07,23,10,17,18.90
2015,07,23,10,18,18.90
2015,07,23,10,19,18.90
2015,07,23,10,20,18.90
2015,07,23,10,21,18.90
2015,07,23,10,22,18.90
2015,07,23,10,23,18.90
2015,07,23,10,24,18.90
2015,07,23,10,25,19.00
2015,07,23,10,26,19.10
2015,07,23,10,27,19.20
2015,07,23,10,28,19.30
2015,07,23,10,29,19.40
2015,07,23,10,30,19.40
2015,07,23,10,31,19.50
2015,07,23,10,32,19.60
2015,07,23,10,33,19.70
2015,07,23,10,34,19.80
2015,07,23,10,35,19.80
2015,07,23,10,36,19.90
2015,07,23,10,37,19.90
2015,07,23,10,38,19.80
2015,07,23,10,39,19.70
2015,07,23,10,40,19.70
2015,07,23,10,41,19.70
2015,07,23,10,42,19.70
2015,07,23,10,43,19.80
2015,07,23,10,44,19.80
2015,07,23,10,45,19.90
2015,07,23,10,46,19.90
2015,07,23,10,47,20.00
2015,07,23,10,48,20.10
2015,07,23,10,49,20.10
2015,07,23,10,50,20.20
2015,07,23,10,51,20.20
2015,07,23,10,52,20.20
2015,07,23,10,53,20.20
2015,07,23,10,54,20.20
2015,07,23,10,55,20.20
2015,07,23,10,56,20.20
2015,07,23,10,57,20.20
2015,07,23,10,58,20.10
2015,07,23,10,59,20.10
2015,07,23,11,00,20.10
2015,07,23,11,01,20.10
2015,07,23,11,02,20.20
2015,07,23,11,03,20.20
2015,07,23,11,04,20.20
2015,07,23,11,05,20.20
2015,07,23,11,06,20.20
2015,07,23,11,07,20.20
2015,07,23,11,08,20.20
2015,07,23,11,09,20.20
2015,07,23,11,10,20.20
2015,07,23,11,11,20.30
2015,07,23,11,12,20.30
2015,07,23,11,13,20.30
2015,07,23,11,14,20.40
2015,07,23,11,15,20.40
2015,07,23,11,16,20.50
2015,07,23,11,17,20.50
2015,07,23,11,18,20.50
2015,07,23,11,19,20.60
2015,07,23,11,20,20.60
2015,07,23,11,21,20.70
2015,07,23,11,22,20.90
2015,07,23,11,23,21.00
2015,07,23,11,24,21.10
2015,07,23,11,25,21.10
2015,07,23,11,26,21.20
2015,07,23,11,27,21.20
2015,07,23,11,28,21.20
2015,07,23,11,29,21.20
2015,07,23,11,30,21.20
2015,07,23,11,31,21.20
2015,07,23,11,32,21.30
2015,07,23,11,33,21.20
2015,07,23,11,34,21.20
2015,07,23,11,35,21.20
2015,07,23,11,36,21.20
2015,07,23,11,37,21.10
2015,07,23,11,38,21.20
2015,07,23,11,39,21.20
2015,07,23,11,40,21.20
2015,07,23,11,41,21.30
2015,07,23,11,42,21.30
2015,07,23,11,43,21.30
2015,07,23,11,44,21.30
2015,07,23,11,45,21.40
2015,07,23,11,46,21.40
2015,07,23,11,47,21.50
2015,07,23,11,48,21.40
2015,07,23,11,49,21.40
2015,07,23,11,50,21.40
2015,07,23,11,51,21.40
2015,07,23,11,52,21.50
2015,07,23,11,53,21.50
2015,07,23,11,54,21.50
2015,07,23,11,55,21.50
2015,07,23,11,56,21.60
2015,07,23,11,57,21.60
2015,07,23,11,58,21.60
2015,07,23,11,59,21.50
2015,07,23,12,00,21.50
2015,07,23,12,01,21.60
2015,07,23,12,02,21.70
2015,07,23,12,03,21.80
2015,07,23,12,04,21.80
2015,07,23,12,05,21.80
2015,07,23,12,06,21.90
2015,07,23,12,07,21.90
2015,07,23,12,08,21.90
2015,07,23,12,09,22.00
2015,07,23,12,10,22.00
2015,07,23,12,11,22.10
2015,07,23,12,12,22.20
2015,07,23,12,13,22.20
2015,07,23,12,14,22.10
2015,07,23,12,15,22.10
2015,07,23,12,16,22.00
2015,07,23,12,17,22.00
2015,07,23,12,18,22.00
2015,07,23,12,19,22.00
2015,07,23,12,20,22.10
2015,07,23,12,21,22.20
2015,07,23,12,22,22.20
2015,07,23,12,23,22.30
2015,07,23,12,24,22.30
2015,07,23,12,25,22.20
2015,07,23,12,26,22.20
2015,07,23,12,27,22.20
2015,07,23,12,28,22.20
2015,07,23,12,29,22.20
2015,07,23,12,30,22.20
2015,07,23,12,31,22.20
2015,07,23,12,32,22.20
2015,07,23,12,33,22.20
2015,07,23,12,34,22.20
2015,07,23,12,35,22.20
2015,07,23,12,36,22.20
2015,07,23,12,37,22.30
2015,07,23,12,38,22.20
2015,07,23,12,39,22.30
2015,07,23,12,40,22.20
2015,07,23,12,41,22.20
2015,07,23,12,42,22.30
2015,07,23,12,43,22.30
2015,07,23,12,44,22.30
2015,07,23,12,45,22.40
2015,07,23,12,46,22.40
2015,07,23,12,47,22.30
2015,07,23,12,48,22.30
2015,07,23,12,49,22.40
2015,07,23,12,50,22.40
2015,07,23,12,51,22.50
2015,07,23,12,52,22.60
2015,07,23,12,53,22.70
2015,07,23,12,54,22.80
2015,07,23,12,55,22.80
2015,07,23,12,56,22.80
2015,07,23,12,57,22.80
2015,07,23,12,58,22.80
2015,07,23,12,59,22.90
2015,07,23,13,00,23.00
2015,07,23,13,01,23.00
2015,07,23,13,02,23.00
2015,07,23,13,03,23.00
2015,07,23,13,04,23.00
2015,07,23,13,05,23.10
2015,07,23,13,06,23.20
2015,07,23,13,07,23.30
2015,07,23,13,08,23.30
2015,07,23,13,09,23.30
2015,07,23,13,10,23.30
2015,07,23,13,11,23.20
2015,07,23,13,12,23.20
2015,07,23,13,13,23.30
2015,07,23,13,14,23.20
2015,07,23,13,15,23.20
2015,07,23,13,16,23.30
2015,07,23,13,17,23.30
2015,07,23,13,18,23.20
2015,07,23,13,19,23.20
2015,07,23,13,20,23.20
2015,07,23,13,21,23.10
2015,07,23,13,22,23.10
2015,07,23,13,23,23.10
2015,07,23,13,24,23.10
2015,07,23,13,25,23.00
2015,07,23,13,26,23.00
2015,07,23,13,27,23.10
2015,07,23,13,28,23.10
2015,07,23,13,29,23.10
2015,07,23,13,30,23.10
2015,07,23,13,31,23.10
2015,07,23,13,32,23.00
2015,07,23,13,33,22.90
2015,07,23,13,34,22.80
2015,07,23,13,35,22.70
2015,07,23,13,36,22.70
2015,07,23,13,37,22.70
2015,07,23,13,38,22.70
2015,07,23,13,39,22.70
2015,07,23,13,40,22.70
2015,07,23,13,41,22.70
2015,07,23,13,42,22.70
2015,07,23,13,43,22.70
2015,07,23,13,44,22.80
2015,07,23,13,45,22.80
2015,07,23,13,46,22.80
2015,07,23,13,47,22.80
2015,07,23,13,48,22.80
2015,07,23,13,49,22.80
2015,07,23,13,50,22.80
2015,07,23,13,51,22.80
2015,07,23,13,52,22.80
2015,07,23,13,53,22.80
2015,07,23,13,54,22.80
2015,07,23,13,55,22.90
2015,07,23,13,56,23.10
2015,07,23,13,57,23.20
2015,07,23,13,58,23.40
2015,07,23,13,59,23.60
2015,07,23,14,00,23.60
2015,07,23,14,01,23.60
2015,07,23,14,02,23.60
2015,07,23,14,03,23.60
2015,07,23,14,04,23.60
2015,07,23,14,05,23.60
2015,07,23,14,06,23.50
2015,07,23,14,07,23.40
2015,07,23,14,08,23.40
2015,07,23,14,09,23.40
2015,07,23,14,10,23.40
2015,07,23,14,11,23.40
2015,07,23,14,12,23.40
2015,07,23,14,13,23.30
2015,07,23,14,14,23.20
2015,07,23,14,15,23.10
2015,07,23,14,16,23.00
2015,07,23,14,17,23.00
2015,07,23,14,18,22.90
2015,07,23,14,19,22.90
2015,07,23,14,20,22.90
2015,07,23,14,21,22.90
2015,07,23,14,22,22.90
2015,07,23,14,23,22.90
2015,07,23,14,24,23.00
2015,07,23,14,25,23.10
2015,07,23,14,26,23.10
2015,07,23,14,27,23.10
2015,07,23,14,28,23.10
2015,07,23,14,29,23.00
2015,07,23,14,30,22.90
2015,07,23,14,31,22.90
2015,07,23,14,32,22.90
2015,07,23,14,33,22.90
2015,07,23,14,34,22.90
2015,07,23,14,35,22.90
2015,07,23,14,36,22.90
2015,07,23,14,37,22.90
2015,07,23,14,38,22.90
2015,07,23,14,39,22.90
2015,07,23,14,40,22.90
2015,07,23,14,41,22.90
2015,07,23,14,42,22.90
2015,07,23,14,43,22.90
2015,07,23,14,44,22.90
2015,07,23,14,45,22.90
2015,07,23,14,46,23.00
2015,07,23,14,47,23.00
2015,07,23,14,48,23.00
2015,07,23,14,49,23.00
2015,07,23,14,50,23.10
2015,07,23,14,51,23.10
2015,07,23,14,52,23.10
2015,07,23,14,53,23.10
2015,07,23,14,54,23.10
2015,07,23,14,55,23.10
2015,07,23,14,56,23.10
2015,07,23,14,57,23.10
2015,07,23,14,58,23.10
2015,07,23,14,59,23.10
2015,07,23,15,00,23.20
2015,07,23,15,01,23.20
2015,07,23,15,02,23.20
2015,07,23,15,03,23.20
2015,07,23,15,04,23.20
2015,07,23,15,05,23.20
2015,07,23,15,06,23.20
2015,07,23,15,07,23.20
2015,07,23,15,08,23.20
2015,07,23,15,09,23.10
2015,07,23,15,10,23.10
2015,07,23,15,11,23.10
2015,07,23,15,12,23.00
2015,07,23,15,13,23.00
2015,07,23,15,14,23.00
2015,07,23,15,15,23.00
2015,07,23,15,16,23.10
2015,07,23,15,17,23.10
2015,07,23,15,18,23.20
2015,07,23,15,19,23.20
2015,07,23,15,20,23.10
2015,07,23,15,21,23.10
2015,07,23,15,22,23.10
2015,07,23,15,23,23.10
2015,07,23,15,24,23.10
2015,07,23,15,25,23.10
2015,07,23,15,26,23.20
2015,07,23,15,27,23.20
2015,07,23,15,28,23.30
2015,07,23,15,29,23.40
2015,07,23,15,30,23.40
2015,07,23,15,31,23.50
2015,07,23,15,32,23.40
2015,07,23,15,33,23.40
2015,07,23,15,34,23.30
2015,07,23,15,35,23.30
2015,07,23,15,36,23.40
2015,07,23,15,37,23.40
2015,07,23,15,38,23.30
2015,07,23,15,39,23.30
2015,07,23,15,40,23.20
2015,07,23,15,41,23.20
2015,07,23,15,42,23.20
2015,07,23,15,43,23.30
2015,07,23,15,44,23.30
2015,07,23,15,45,23.40
2015,07,23,15,46,23.40
2015,07,23,15,47,23.40
2015,07,23,15,48,23.30
2015,07,23,15,49,23.30
2015,07,23,15,50,23.20
2015,07,23,15,51,23.20
2015,07,23,15,52,23.20
2015,07,23,15,53,23.20
2015,07,23,15,54,23.20
2015,07,23,15,55,23.20
2015,07,23,15,56,23.20
2015,07,23,15,57,23.20
2015,07,23,15,58,23.30
2015,07,23,15,59,23.30
2015,07,23,16,00,23.30
2015,07,23,16,01,23.20
2015,07,23,16,02,23.20
2015,07,23,16,03,23.20
2015,07,23,16,04,23.20
2015,07,23,16,05,23.20
2015,07,23,16,06,23.20
2015,07,23,16,07,23.20
2015,07,23,16,08,23.30
2015,07,23,16,09,23.30
2015,07,23,16,10,23.30
2015,07,23,16,11,23.30
2015,07,23,16,12,23.30
2015,07,23,16,13,23.30
2015,07,23,16,14,23.30
2015,07,23,16,15,23.30
2015,07,23,16,16,23.30
2015,07,23,16,17,23.30
2015,07,23,16,18,23.30
2015,07,23,16,19,23.30
2015,07,23,16,20,23.30
2015,07,23,16,21,23.30
2015,07,23,16,22,23.30
2015,07,23,16,23,23.20
2015,07,23,16,24,23.20
2015,07,23,16,25,23.20
2015,07,23,16,26,23.20
2015,07,23,16,27,23.20
2015,07,23,16,28,23.20
2015,07,23,16,29,23.20
2015,07,23,16,30,23.20
2015,07,23,16,31,23.20
2015,07,23,16,32,23.20
2015,07,23,16,33,23.30
2015,07,23,16,34,23.40
2015,07,23,16,35,23.40
2015,07,23,16,36,23.30
2015,07,23,16,37,23.30
2015,07,23,16,38,23.30
2015,07,23,16,39,23.30
2015,07,23,16,40,23.30
2015,07,23,16,41,23.40
2015,07,23,16,42,23.40
2015,07,23,16,43,23.40
2015,07,23,16,44,23.40
2015,07,23,16,45,23.30
2015,07,23,16,46,23.30
2015,07,23,16,47,23.30
2015,07,23,16,48,23.30
2015,07,23,16,49,23.30
2015,07,23,16,50,23.30
2015,07,23,16,51,23.20
2015,07,23,16,52,23.20
2015,07,23,16,53,23.20
2015,07,23,16,54,23.10
2015,07,23,16,55,23.00
2015,07,23,16,56,22.90
2015,07,23,16,57,22.90
2015,07,23,16,58,23.00
2015,07,23,16,59,23.10
2015,07,23,17,00,23.10
2015,07,23,17,01,23.10
2015,07,23,17,02,23.20
2015,07,23,17,03,23.10
2015,07,23,17,04,23.10
2015,07,23,17,05,23.00
2015,07,23,17,06,23.00
2015,07,23,17,07,22.90
2015,07,23,17,08,22.90
2015,07,23,17,09,22.90
2015,07,23,17,10,23.00
2015,07,23,17,11,23.00
2015,07,23,17,12,23.00
2015,07,23,17,13,23.00
2015,07,23,17,14,22.90
2015,07,23,17,15,22.90
2015,07,23,17,16,22.90
2015,07,23,17,17,22.80
2015,07,23,17,18,22.70
2015,07,23,17,19,22.60
2015,07,23,17,20,22.50
2015,07,23,17,21,22.50
2015,07,23,17,22,22.50
2015,07,23,17,23,22.40
2015,07,23,17,24,22.40
2015,07,23,17,25,22.30
2015,07,23,17,26,22.30